PBO Station Position Time Series. Reference Frame : NAM14
Format Version,1.1.0
4-character ID,VMAG
Station name,Magangue
Begin Date, 2012-05-01
End Date, 2019-10-07
Release Date, 2019-10-08
Reference position, 9.2867416537 North Latitude, -74.8473192033 East Longitude, 61.08945 meters elevation,
Date, North (mm), East (mm), Vertical (mm), North Std. Deviation (mm), East Std. Deviation (mm),              Vertical Std. Deviation (mm), Quality,
2012-05-01,0.00, 0.00, 0.00, 2.12, 2.85, 9.76, repro,
2012-05-02,-0.40, -3.85, -8.83, 2.09, 2.86, 9.63, repro,
2012-05-03,1.20, 1.74, -7.23, 2.00, 2.83, 9.41, repro,
2012-05-04,0.68, 2.41, -7.81, 2.12, 2.96, 9.88, repro,
2012-05-05,-1.02, -0.08, -10.62, 2.21, 3.32, 10.71, repro,
2012-05-06,-1.00, 0.45, -11.49, 2.11, 2.97, 9.74, repro,
2012-05-07,1.93, 0.50, -7.96, 2.09, 2.83, 9.71, repro,
2012-05-08,-0.84, -0.78, -5.60, 2.01, 2.84, 9.47, repro,
2012-05-09,-0.27, -1.14, -19.37, 2.00, 2.80, 9.35, repro,
2012-05-10,-0.57, -0.20, -24.19, 1.99, 2.77, 9.28, repro,
2012-05-11,-1.39, 0.09, -12.65, 2.17, 3.10, 10.07, repro,
2012-05-12,-1.96, 0.03, -8.60, 1.95, 2.82, 9.16, repro,
2012-05-13,-1.04, -0.45, -17.25, 2.08, 2.97, 9.95, repro,
2012-05-14,-0.47, 0.63, -22.69, 2.08, 2.98, 9.84, repro,
2012-05-15,1.23, -1.40, -9.05, 2.00, 2.81, 9.33, repro,
2012-05-16,0.94, 0.00, -2.59, 1.98, 2.77, 9.23, repro,
2012-05-17,2.65, -1.11, -11.91, 2.07, 2.83, 9.58, repro,
2012-05-18,-0.05, 3.55, 4.44, 2.12, 2.95, 9.99, repro,
2012-05-19,0.19, 0.41, -19.63, 2.30, 3.06, 10.40, repro,
2012-05-20,1.57, -0.08, -6.30, 2.17, 2.90, 9.90, repro,
2012-05-21,-0.96, 1.74, -14.76, 2.06, 2.84, 9.36, repro,
2012-05-22,4.70, 0.83, -4.12, 2.05, 2.84, 9.41, repro,
2012-05-23,0.50, 0.04, -15.48, 2.06, 2.90, 9.46, repro,
2012-05-24,-0.47, -0.36, -5.27, 2.13, 2.89, 9.64, repro,
2012-05-25,0.98, 0.22, 4.51, 2.32, 3.26, 10.75, repro,
2012-05-26,1.11, 0.05, -1.68, 1.97, 2.84, 9.15, repro,
2012-05-27,-0.07, 1.69, -12.04, 1.93, 2.77, 8.93, repro,
2012-05-28,1.53, -0.11, 6.80, 2.00, 2.94, 9.49, repro,
2012-05-29,2.11, 0.79, -2.11, 1.94, 2.81, 9.09, repro,
2012-05-30,-0.18, 0.36, 8.43, 1.95, 2.83, 9.13, repro,
2012-05-31,0.84, 0.48, -6.64, 1.96, 2.83, 9.11, repro,
2012-06-01,-0.80, 0.12, -7.84, 2.00, 2.84, 9.18, repro,
2012-06-02,-0.41, 0.24, -0.54, 1.98, 2.87, 9.20, repro,
2012-06-03,0.89, -0.83, -1.45, 1.97, 2.83, 9.16, repro,
2012-06-04,-0.24, -0.81, 2.49, 1.97, 2.86, 9.25, repro,
2012-06-05,0.26, -1.65, -1.71, 1.97, 2.85, 9.15, repro,
2012-06-06,-0.60, 0.37, -11.28, 1.97, 2.83, 9.09, repro,
2012-06-07,-0.02, -0.19, -3.64, 1.96, 2.81, 9.07, repro,
2012-06-08,-0.58, 0.43, -3.77, 1.96, 2.82, 9.14, repro,
2012-06-09,-1.91, -1.35, -9.80, 2.08, 3.04, 9.85, repro,
2012-06-10,-0.45, -1.71, -15.89, 1.98, 2.82, 9.17, repro,
2012-06-11,0.32, -0.27, -5.52, 2.01, 2.86, 9.28, repro,
2012-06-12,0.91, -3.68, -6.30, 2.00, 2.77, 9.10, repro,
2012-06-13,-1.14, -0.82, -0.91, 2.09, 3.11, 9.74, repro,
2012-06-14,3.06, -0.58, -7.91, 1.99, 2.83, 9.23, repro,
2012-06-15,2.76, -1.53, -1.70, 1.98, 2.82, 9.20, repro,
2012-06-16,0.48, 0.69, -14.79, 2.06, 2.84, 9.49, repro,
2012-06-17,0.03, -1.77, -11.84, 1.98, 2.79, 9.12, repro,
2012-06-18,2.91, -10.04, -35.49, 2.20, 3.34, 10.02, repro,
2012-06-19,0.88, -1.00, -10.04, 1.99, 2.81, 9.12, repro,
2012-06-20,3.29, -1.35, -5.05, 1.98, 2.80, 9.17, repro,
2012-06-21,3.19, 2.33, -4.64, 2.22, 3.32, 10.17, repro,
2012-06-22,0.45, -0.37, -1.76, 1.96, 2.77, 9.05, repro,
2012-06-23,4.37, 3.73, -9.81, 2.09, 2.83, 9.61, repro,
2012-06-24,2.07, 4.61, 3.15, 2.42, 3.57, 11.25, repro,
2012-06-25,-0.26, 0.06, -17.00, 1.95, 2.80, 9.13, repro,
2012-06-26,-2.31, -2.60, -3.45, 2.34, 3.60, 11.16, repro,
2012-06-27,1.30, -0.97, -17.77, 2.06, 2.84, 9.43, repro,
2012-06-28,4.03, -1.56, -16.98, 1.97, 2.81, 9.21, repro,
2012-06-29,-0.46, -0.44, -10.29, 1.98, 2.81, 9.22, repro,
2012-06-30,0.94, -1.14, -23.74, 2.13, 3.09, 9.85, repro,
2012-07-01,2.85, -0.75, -12.17, 1.95, 2.84, 9.20, repro,
2012-07-02,-1.41, 1.20, -10.01, 2.16, 3.06, 10.22, repro,
2012-07-03,0.48, -0.39, -4.39, 2.08, 2.98, 9.69, repro,
2012-07-04,1.24, -1.51, -17.64, 2.06, 2.86, 9.54, repro,
2012-07-05,0.09, 0.04, 3.07, 2.05, 2.85, 9.53, repro,
2012-07-06,-0.70, -0.17, -7.20, 2.16, 3.32, 10.27, repro,
2012-07-07,1.98, 0.17, -1.25, 1.95, 2.85, 9.24, repro,
2012-07-08,1.28, -1.74, -5.75, 2.05, 2.89, 9.57, repro,
2012-07-09,1.61, -2.03, -13.39, 2.00, 2.83, 9.36, repro,
2012-07-10,1.05, -0.40, -3.25, 1.96, 2.83, 9.19, repro,
2012-07-11,-0.73, -3.12, -14.19, 1.98, 2.87, 9.36, repro,
2012-07-12,-0.08, 1.00, -12.24, 1.99, 2.97, 9.43, repro,
2012-07-13,3.24, -5.29, -8.28, 1.99, 2.94, 9.44, repro,
2012-07-14,1.52, 0.43, -6.93, 2.10, 3.01, 9.85, repro,
2012-07-15,-0.79, -3.41, -5.87, 2.15, 2.98, 9.71, repro,
2012-07-16,2.18, 1.62, -12.25, 2.06, 2.91, 9.56, repro,
2012-07-17,1.26, -0.03, 3.98, 2.09, 2.99, 9.75, repro,
2012-07-18,2.54, -2.33, -3.40, 2.06, 2.89, 9.55, repro,
2012-07-19,1.72, 1.29, 0.08, 1.97, 2.82, 9.26, repro,
2012-07-20,2.09, -2.14, 0.89, 1.98, 2.85, 9.28, repro,
2012-07-21,0.92, -1.02, -6.39, 2.19, 3.20, 10.06, repro,
2012-07-22,0.32, 4.18, -18.63, 1.95, 2.82, 9.04, repro,
2012-07-23,-1.41, 1.00, -2.74, 1.97, 2.82, 9.17, repro,
2012-07-24,2.59, -1.22, 2.65, 1.95, 2.85, 9.18, repro,
2012-07-25,2.16, -1.18, -7.29, 2.18, 3.11, 9.97, repro,
2012-07-26,2.53, 0.61, -5.24, 1.95, 2.78, 9.03, repro,
2012-07-27,3.25, 0.75, -5.23, 2.08, 3.06, 9.77, repro,
2012-07-28,1.42, 1.63, 1.88, 1.94, 2.76, 8.92, repro,
2012-07-29,0.99, 1.27, -0.61, 2.08, 2.97, 9.65, repro,
2012-07-30,3.80, -3.56, -3.18, 1.99, 2.87, 9.40, repro,
2012-07-31,0.23, 1.74, -10.82, 2.15, 3.17, 10.14, repro,
2012-08-01,-1.06, 1.49, -9.31, 1.95, 2.80, 9.01, repro,
2012-08-02,1.56, -0.02, -1.51, 2.14, 3.05, 9.71, repro,
2012-08-03,4.68, 0.87, 2.94, 2.02, 3.01, 9.46, repro,
2012-08-04,1.85, -4.14, 3.90, 1.95, 2.84, 9.16, repro,
2012-08-05,0.07, 2.26, -10.26, 2.04, 3.02, 9.78, repro,
2012-08-06,2.01, 0.65, -1.76, 1.94, 2.81, 9.03, repro,
2012-08-07,0.64, 1.07, -4.03, 1.95, 2.81, 9.05, repro,
2012-08-08,3.23, 0.99, -8.47, 2.06, 3.09, 9.83, repro,
2012-08-09,2.10, -0.61, 1.81, 1.94, 2.81, 9.12, repro,
2012-08-10,-0.01, -0.79, -11.96, 1.98, 2.91, 9.26, repro,
2012-08-11,3.19, -2.88, 0.04, 2.11, 3.19, 9.87, repro,
2012-08-12,1.58, 1.57, -5.35, 1.98, 2.90, 9.24, repro,
2012-08-13,3.00, 0.14, -7.25, 2.26, 3.53, 10.74, repro,
2012-08-14,1.35, 1.65, 0.27, 2.14, 3.06, 9.78, repro,
2012-08-15,5.03, -0.91, -0.97, 1.97, 2.87, 9.28, repro,
2012-08-16,2.13, 0.71, -13.15, 1.96, 2.84, 9.17, repro,
2012-08-17,2.35, -5.34, -16.46, 2.07, 3.06, 9.57, repro,
2012-08-18,1.82, -2.30, -8.78, 2.22, 3.29, 10.02, repro,
2012-08-19,2.15, -2.58, -9.18, 1.96, 2.86, 9.23, repro,
2012-08-20,5.19, 2.81, -1.90, 1.97, 2.91, 9.17, repro,
2012-08-21,1.57, -0.69, -15.45, 1.96, 2.84, 9.12, repro,
2012-08-22,2.87, 0.23, -16.37, 1.96, 2.84, 9.16, repro,
2012-08-23,2.21, -2.31, -0.85, 2.39, 3.75, 11.29, repro,
2012-08-24,0.01, 0.69, -9.82, 1.97, 2.93, 9.34, repro,
2012-08-25,2.33, -1.63, -5.46, 1.95, 2.85, 9.10, repro,
2012-08-26,3.33, -3.49, -4.61, 2.24, 3.14, 10.23, repro,
2012-08-27,2.88, -1.94, -16.16, 1.98, 2.93, 9.31, repro,
2012-08-28,3.17, -1.06, -10.78, 2.07, 2.95, 9.62, repro,
2012-08-29,4.17, -5.24, -6.83, 2.05, 2.96, 9.57, repro,
2012-08-30,4.17, 0.84, -18.93, 2.22, 3.05, 10.22, repro,
2012-08-31,1.81, -2.81, -7.06, 2.02, 2.95, 9.38, repro,
2012-09-01,0.47, -5.03, -7.49, 2.12, 3.05, 9.78, repro,
2012-09-02,3.20, 0.51, -8.69, 2.00, 2.93, 9.32, repro,
2012-09-03,2.64, -2.41, -16.52, 2.06, 3.08, 9.65, repro,
2012-09-04,3.45, -0.15, -14.96, 2.10, 2.93, 9.74, repro,
2012-09-05,2.61, -1.89, 2.49, 2.32, 3.59, 11.04, repro,
2012-09-06,1.22, -1.53, -12.61, 1.95, 2.82, 9.15, repro,
2012-09-07,2.13, -3.11, -10.53, 2.23, 3.17, 10.30, repro,
2012-09-08,0.67, -6.25, 5.55, 2.27, 3.49, 10.82, repro,
2012-09-09,3.17, -2.07, -19.47, 2.14, 3.11, 9.81, repro,
2012-09-10,4.39, -0.28, -9.09, 2.42, 3.71, 11.69, repro,
2012-09-11,4.14, -2.02, -20.09, 2.03, 2.90, 9.39, repro,
2012-09-12,1.82, -3.90, -10.59, 2.06, 2.96, 9.63, repro,
2012-09-13,2.21, -6.69, -6.59, 2.23, 3.25, 10.39, repro,
2012-09-14,2.44, -4.13, -12.58, 2.14, 3.22, 9.98, repro,
2012-09-15,2.45, -4.97, -17.44, 1.93, 2.75, 8.98, repro,
2012-09-16,4.40, -3.48, -4.63, 1.93, 2.74, 8.95, repro,
2012-09-17,3.44, -4.15, -10.47, 1.92, 2.70, 9.12, repro,
2012-09-18,4.30, -3.47, -5.62, 2.21, 3.44, 10.31, repro,
2012-09-19,3.90, -0.17, -3.34, 2.03, 2.95, 9.75, repro,
2012-09-20,4.75, -6.67, -18.44, 2.05, 3.06, 9.47, repro,
2012-09-21,5.36, -4.44, -3.99, 2.08, 2.80, 9.90, repro,
2012-09-22,3.19, -4.01, -3.70, 2.08, 2.98, 9.91, repro,
2012-09-23,2.81, -1.05, -3.11, 1.97, 2.92, 9.20, repro,
2012-09-24,8.32, -3.86, 3.48, 2.06, 3.06, 9.70, repro,
2012-09-25,5.19, -3.42, -4.45, 2.02, 3.06, 9.46, repro,
2012-09-26,5.00, -3.55, -6.11, 2.01, 2.75, 9.63, repro,
2012-09-27,3.02, -3.22, -9.74, 2.02, 2.95, 9.38, repro,
2012-09-28,2.60, -4.48, -5.22, 2.00, 2.96, 9.36, repro,
2012-09-29,2.89, -4.47, -13.98, 1.93, 2.79, 8.90, repro,
2012-09-30,3.36, -3.65, -6.36, 1.94, 2.75, 9.08, repro,
2012-10-01,2.47, -5.19, -11.16, 2.43, 3.25, 11.18, repro,
2012-10-02,5.03, 0.44, 2.37, 2.33, 3.32, 10.95, repro,
2012-10-03,5.38, -3.60, 4.93, 1.90, 2.60, 8.99, repro,
2012-10-04,3.57, -1.85, -6.65, 2.07, 2.88, 9.97, repro,
2012-10-05,1.57, -5.39, -14.13, 2.03, 2.81, 9.51, repro,
2012-10-06,2.27, -1.18, -14.76, 2.11, 3.05, 10.31, repro,
2012-10-07,2.63, -1.86, -6.57, 1.97, 2.86, 9.15, repro,
2012-10-08,2.91, -3.39, 4.45, 1.98, 2.90, 9.32, repro,
2012-10-09,2.62, -3.33, -6.67, 2.12, 3.23, 10.12, repro,
2012-10-10,3.15, -0.37, -1.70, 2.26, 3.37, 10.65, repro,
2012-10-11,1.69, -4.72, -5.14, 2.00, 2.90, 9.32, repro,
2012-10-12,0.19, -3.83, 22.15, 2.00, 2.76, 9.44, repro,
2012-10-13,2.32, -4.99, -3.47, 1.99, 2.89, 9.25, repro,
2012-10-14,2.34, -4.29, 2.98, 2.07, 2.94, 9.36, repro,
2012-10-15,4.35, -2.32, -6.16, 2.05, 2.89, 9.56, repro,
2012-10-16,3.69, -2.28, -5.98, 1.92, 2.67, 9.13, repro,
2012-10-17,6.20, -2.96, -5.90, 2.18, 2.96, 10.32, repro,
2012-10-18,3.93, -4.40, -0.05, 2.19, 3.27, 10.07, repro,
2012-10-19,3.99, -4.88, -3.24, 1.98, 2.76, 9.28, repro,
2012-10-20,2.63, -4.18, -2.26, 2.16, 2.92, 10.20, repro,
2012-10-21,2.97, -2.70, -5.03, 2.24, 3.05, 10.53, repro,
2012-10-22,3.88, -2.67, -0.32, 2.02, 2.97, 9.35, repro,
2012-10-23,3.87, -1.75, -6.43, 2.05, 2.85, 9.72, repro,
2012-10-24,1.60, -1.09, 1.42, 2.06, 2.90, 9.41, repro,
2012-10-25,2.41, -5.20, -3.56, 1.93, 2.80, 8.98, repro,
2012-10-26,4.19, -4.14, -15.91, 1.90, 2.68, 9.04, repro,
2012-10-27,3.36, -2.97, -9.48, 1.96, 2.84, 9.15, repro,
2012-10-28,1.54, -3.05, -13.38, 2.21, 3.26, 10.52, repro,
2012-10-29,4.09, -2.17, -4.83, 1.92, 2.66, 9.02, repro,
2012-10-30,4.60, -3.98, -10.40, 2.15, 3.08, 10.15, repro,
2012-10-31,2.23, -4.20, -1.12, 1.97, 2.91, 9.21, repro,
2012-11-01,2.58, -1.29, -16.83, 2.02, 2.94, 9.34, repro,
2012-11-02,1.76, -3.89, -10.13, 2.11, 3.05, 9.83, repro,
2012-11-03,1.52, -3.52, -19.58, 1.91, 2.66, 9.10, repro,
2012-11-04,1.98, -4.02, -21.34, 2.03, 2.90, 9.42, repro,
2012-11-05,-0.12, 3.57, -29.30, 2.44, 3.77, 12.19, repro,
2012-11-06,1.84, -2.66, -8.08, 2.04, 2.88, 9.45, repro,
2012-11-07,-0.22, -3.50, -26.16, 2.28, 3.54, 10.94, repro,
2012-11-08,-0.05, -3.18, -12.80, 2.11, 3.06, 9.97, repro,
2012-11-09,0.82, -6.99, -30.65, 2.17, 3.19, 10.12, repro,
2012-11-10,2.17, -2.95, -20.67, 2.29, 3.15, 11.05, repro,
2012-11-11,2.75, -2.46, -19.16, 2.08, 3.00, 9.68, repro,
2012-11-12,1.15, -0.35, -4.78, 2.15, 2.94, 9.74, repro,
2012-11-13,2.44, -2.70, -22.41, 2.37, 3.35, 10.83, repro,
2012-11-14,1.71, -4.48, -23.12, 2.15, 2.79, 9.88, repro,
2012-11-15,3.14, -4.54, -11.29, 2.31, 3.38, 10.46, repro,
2012-11-16,2.53, 0.01, -18.35, 2.15, 3.23, 9.99, repro,
2012-11-17,1.42, -4.78, -3.45, 2.19, 3.20, 10.25, repro,
2012-11-18,1.28, -3.87, -25.34, 2.19, 3.21, 10.21, repro,
2012-11-19,0.51, -1.32, -21.67, 2.18, 3.15, 10.08, repro,
2012-11-20,0.43, -2.90, -9.02, 2.15, 3.18, 10.12, repro,
2012-11-21,1.32, -0.42, -8.17, 2.00, 2.91, 9.26, repro,
2012-11-22,-0.54, -2.52, -12.65, 2.20, 3.10, 10.09, repro,
2012-11-23,1.14, -3.76, -32.26, 2.10, 2.91, 9.69, repro,
2012-11-24,0.40, -3.99, -15.45, 2.06, 2.91, 9.51, repro,
2012-11-25,1.80, 2.35, -1.78, 2.26, 3.19, 10.37, repro,
2012-11-26,-0.07, -3.21, -8.65, 2.26, 3.17, 10.40, repro,
2012-11-27,-0.21, -3.50, -2.37, 2.13, 3.04, 10.06, repro,
2012-11-28,-0.70, 1.29, -21.85, 2.23, 3.21, 10.89, repro,
2012-11-29,-1.06, -0.57, -25.62, 2.22, 3.13, 10.33, repro,
2012-11-30,1.02, 0.13, -15.23, 2.11, 3.01, 9.95, repro,
2012-12-01,0.03, -2.50, -24.80, 2.35, 3.44, 10.80, repro,
2012-12-02,-1.01, -2.07, -19.43, 2.11, 3.09, 9.93, repro,
2012-12-03,-1.73, -0.14, -14.67, 2.08, 2.93, 9.73, repro,
2012-12-04,1.56, -2.34, -16.83, 2.05, 2.93, 9.52, repro,
2012-12-05,0.95, -0.47, -12.83, 2.26, 3.34, 10.51, repro,
2012-12-06,0.05, -2.05, -17.13, 2.20, 3.15, 10.31, repro,
2012-12-07,0.39, -3.06, -17.30, 2.13, 2.99, 9.60, repro,
2012-12-08,3.54, -1.14, -11.65, 2.03, 2.95, 9.47, repro,
2012-12-09,-0.24, -1.73, 2.27, 2.14, 3.00, 10.03, repro,
2012-12-10,-0.54, -2.36, -6.80, 2.03, 2.94, 9.62, repro,
2012-12-11,0.60, -0.78, -13.17, 2.02, 2.90, 9.43, repro,
2012-12-12,-0.44, -1.02, -14.04, 2.28, 3.22, 10.74, repro,
2012-12-13,-0.99, -2.55, -6.92, 2.09, 2.96, 9.81, repro,
2012-12-14,-3.65, -4.33, -23.13, 2.34, 3.40, 11.23, repro,
2012-12-15,0.69, -4.97, -7.41, 2.24, 3.29, 10.37, repro,
2012-12-16,3.00, -1.46, -9.80, 1.95, 2.70, 9.19, repro,
2012-12-17,2.02, -2.16, -11.85, 2.12, 3.00, 9.91, repro,
2012-12-18,1.09, -5.54, -14.24, 2.38, 3.53, 11.41, repro,
2012-12-19,3.41, -2.39, -4.20, 1.97, 2.76, 9.14, repro,
2012-12-20,4.49, -1.05, 3.24, 2.31, 2.96, 10.61, repro,
2012-12-21,0.09, -1.75, -12.13, 2.14, 2.86, 9.99, repro,
2012-12-22,0.25, -2.52, -15.69, 2.05, 2.79, 9.47, repro,
2012-12-23,0.78, -4.21, -4.04, 2.00, 2.78, 9.25, repro,
2012-12-24,1.51, -2.59, -12.90, 2.19, 2.87, 10.08, repro,
2012-12-25,1.97, -0.55, -9.15, 1.99, 2.80, 9.20, repro,
2012-12-26,-0.27, -5.11, -20.98, 2.02, 2.81, 9.40, repro,
2012-12-27,1.97, -4.03, -3.62, 1.98, 2.76, 9.14, repro,
2012-12-28,-1.37, -4.67, -3.46, 2.10, 2.95, 9.85, repro,
2012-12-29,0.08, -4.15, -12.71, 2.05, 2.78, 9.42, repro,
2012-12-30,1.89, -3.50, -14.72, 1.98, 2.76, 9.19, repro,
2012-12-31,0.11, -2.20, -18.66, 2.05, 2.75, 9.38, repro,
2013-01-01,1.58, -3.03, -2.36, 2.15, 3.11, 10.26, repro,
2013-01-02,1.57, -4.55, -10.93, 2.37, 3.10, 10.64, repro,
2013-01-03,0.86, -3.66, -12.37, 2.06, 2.83, 9.39, repro,
2013-01-04,1.41, -4.88, -19.76, 2.03, 2.88, 9.37, repro,
2013-01-05,4.03, -1.35, -6.49, 1.97, 2.87, 9.15, repro,
2013-01-06,0.72, -3.43, -10.67, 1.99, 2.91, 9.36, repro,
2013-01-07,0.44, -0.04, -17.04, 2.29, 3.21, 11.02, repro,
2013-01-08,3.38, -3.44, -10.47, 2.09, 2.90, 9.70, repro,
2013-01-09,2.97, -3.19, -15.29, 2.11, 3.05, 10.04, repro,
2013-01-10,2.15, -3.00, -9.50, 2.04, 2.98, 9.47, repro,
2013-01-11,1.54, -2.23, -4.08, 2.35, 3.15, 10.75, repro,
2013-01-12,3.49, -3.25, -2.41, 2.33, 3.08, 10.44, repro,
2013-01-13,2.40, -3.20, -1.11, 2.03, 2.99, 9.50, repro,
2013-01-14,1.59, -3.37, -7.29, 2.15, 3.03, 10.02, repro,
2013-01-15,1.07, -1.93, -4.80, 2.04, 2.92, 9.40, repro,
2013-01-16,1.96, -1.96, -1.39, 2.18, 3.20, 10.38, repro,
2013-01-17,3.15, -2.53, -0.26, 2.46, 3.60, 11.42, repro,
2013-01-18,2.64, -3.45, -12.84, 2.27, 3.14, 10.29, repro,
2013-01-19,1.52, 0.89, -15.13, 2.00, 2.87, 9.26, repro,
2013-01-20,0.69, -0.16, -5.08, 2.04, 2.91, 9.33, repro,
2013-01-21,1.64, -1.20, 0.08, 2.06, 2.97, 9.49, repro,
2013-01-22,1.02, -1.45, -2.74, 2.38, 3.17, 10.58, repro,
2013-01-23,3.33, -1.66, -6.13, 2.06, 3.04, 9.77, repro,
2013-01-24,1.50, -0.73, -6.10, 2.16, 3.05, 10.09, repro,
2013-01-25,4.16, 2.08, -4.98, 2.46, 3.17, 10.54, repro,
2013-01-26,1.64, -0.99, -4.33, 2.25, 3.01, 10.12, repro,
2013-01-27,0.79, -2.17, 2.39, 2.00, 2.85, 9.18, repro,
2013-01-28,1.84, -0.22, -11.16, 2.04, 2.90, 9.45, repro,
2013-01-29,3.32, -0.81, 2.37, 2.02, 2.92, 9.40, repro,
2013-01-30,3.74, -0.61, -1.50, 2.09, 3.10, 9.57, repro,
2013-01-31,2.44, -0.28, 1.37, 2.05, 3.03, 9.40, repro,
2013-02-01,1.32, 1.18, -9.17, 2.08, 3.10, 9.57, repro,
2013-02-02,2.52, -1.00, -8.41, 2.00, 2.89, 9.21, repro,
2013-02-03,1.18, -0.18, -5.47, 2.00, 2.89, 9.24, repro,
2013-02-04,3.32, -0.48, 4.28, 1.99, 2.89, 9.23, repro,
2013-02-05,3.46, 2.29, -17.84, 2.14, 3.17, 9.92, repro,
2013-02-06,2.20, -0.43, -7.84, 1.80, 2.24, 8.35, repro,
2013-02-07,1.74, -0.58, -7.01, 1.75, 2.22, 8.11, repro,
2013-02-08,1.98, 1.18, -8.94, 1.61, 2.03, 7.40, repro,
2013-02-09,1.79, -0.40, -8.89, 1.56, 1.94, 7.21, repro,
2013-02-10,2.27, -2.87, -5.52, 1.69, 2.05, 7.97, repro,
2013-02-11,5.72, -2.61, 1.58, 1.56, 1.90, 7.15, repro,
2013-02-12,1.99, 0.72, -15.84, 1.62, 1.99, 7.48, repro,
2013-02-13,3.98, -0.63, -15.61, 1.70, 2.04, 7.90, repro,
2013-02-14,1.62, 0.62, 0.79, 1.62, 1.97, 7.59, repro,
2013-02-15,3.09, 0.81, -13.04, 1.55, 1.91, 7.12, repro,
2013-02-16,1.03, 0.41, -18.05, 1.59, 1.95, 7.36, repro,
2013-02-17,0.67, -2.80, -15.73, 1.60, 2.00, 7.55, repro,
2013-02-18,1.02, -2.04, -11.84, 1.62, 1.99, 7.48, repro,
2013-02-19,0.81, -0.45, -8.77, 1.60, 1.98, 7.39, repro,
2013-02-20,1.38, -1.14, -6.84, 1.63, 1.99, 7.41, repro,
2013-02-21,-0.19, -0.07, -7.15, 1.70, 2.07, 7.67, repro,
2013-02-22,2.43, -2.93, -13.31, 1.61, 2.05, 7.43, repro,
2013-02-23,2.01, -2.67, -3.12, 1.62, 2.03, 7.44, repro,
2013-02-24,-0.39, -0.70, 0.30, 1.61, 2.01, 7.44, repro,
2013-02-25,1.45, 1.04, -8.47, 1.59, 1.97, 7.29, repro,
2013-02-26,2.59, -2.69, -12.34, 1.60, 2.00, 7.37, repro,
2013-02-27,2.33, -0.94, -8.15, 1.58, 2.00, 7.21, repro,
2013-02-28,2.96, -1.95, -4.56, 1.61, 2.01, 7.50, repro,
2013-03-01,1.30, 1.07, 1.52, 1.62, 2.04, 7.48, repro,
2013-03-02,1.15, -4.14, -4.02, 1.63, 1.99, 7.52, repro,
2013-03-03,2.89, -2.91, -3.79, 1.57, 1.96, 7.15, repro,
2013-03-04,2.17, -3.04, 1.02, 1.60, 2.00, 7.42, repro,
2013-03-05,1.87, -2.39, -8.11, 1.62, 2.13, 7.42, repro,
2013-03-06,1.13, 0.34, -16.04, 1.74, 2.15, 7.94, repro,
2013-03-07,2.22, 0.03, -5.32, 1.68, 2.14, 7.81, repro,
2013-03-08,1.76, -2.45, -5.19, 1.65, 1.97, 7.43, repro,
2013-03-09,3.31, -0.36, -4.33, 1.56, 1.95, 7.23, repro,
2013-03-10,2.42, -0.81, -5.39, 1.73, 2.03, 7.67, repro,
2013-03-11,2.40, 0.74, -5.68, 1.71, 2.01, 7.90, repro,
2013-03-12,3.89, -1.39, -3.95, 1.65, 2.07, 7.47, repro,
2013-03-13,1.61, -2.91, -10.77, 1.65, 2.01, 7.52, repro,
2013-03-14,1.28, 0.18, -6.02, 1.65, 2.09, 7.59, repro,
2013-03-15,1.61, -1.56, -11.86, 1.62, 1.95, 7.41, repro,
2013-03-16,2.13, -1.39, 9.93, 1.64, 2.09, 7.57, repro,
2013-03-17,1.56, -1.63, -8.88, 1.61, 2.02, 7.43, repro,
2013-03-18,3.15, -0.56, -20.22, 1.62, 2.02, 7.47, repro,
2013-03-19,1.14, 0.31, -9.93, 1.71, 2.15, 8.09, repro,
2013-03-20,-0.18, -2.20, -15.20, 1.73, 2.17, 8.09, repro,
2013-03-21,2.44, 0.10, -11.75, 1.58, 1.92, 7.25, repro,
2013-03-22,0.30, -1.06, -2.17, 1.55, 1.92, 7.08, repro,
2013-03-23,1.88, -2.38, -2.02, 1.58, 2.01, 7.27, repro,
2013-03-24,1.35, 0.00, -1.21, 1.57, 1.97, 7.26, repro,
2013-03-25,3.22, -0.54, -9.61, 1.62, 2.00, 7.47, repro,
2013-03-26,0.78, 2.22, -9.45, 1.61, 1.96, 7.35, repro,
2013-03-27,-1.00, -2.67, -11.15, 1.58, 1.94, 7.20, repro,
2013-03-28,-1.54, 0.98, -11.11, 1.84, 2.34, 8.43, repro,
2013-03-29,2.45, -6.54, -13.15, 1.69, 2.04, 7.75, repro,
2013-03-30,2.01, -0.50, 0.66, 1.58, 1.91, 7.23, repro,
2013-03-31,2.19, 1.41, -2.71, 1.60, 1.93, 7.33, repro,
2013-04-01,1.77, 0.64, -5.44, 1.66, 2.01, 7.64, repro,
2013-04-02,0.33, -2.64, -10.56, 1.69, 2.00, 7.70, repro,
2013-04-03,1.97, -1.73, -6.26, 1.60, 2.02, 7.43, repro,
2013-04-04,1.53, -0.40, -7.22, 1.62, 1.95, 7.39, repro,
2013-04-05,-0.51, 2.05, -11.54, 1.84, 2.34, 8.56, repro,
2013-04-06,1.90, -3.27, -10.09, 1.77, 2.29, 8.15, repro,
2013-04-07,0.19, -1.17, -3.07, 1.65, 2.01, 7.58, repro,
2013-04-08,0.40, -3.36, -14.62, 1.69, 2.04, 7.88, repro,
2013-04-09,1.97, 0.12, -9.04, 1.62, 1.93, 7.38, repro,
2013-04-10,2.06, -1.28, -6.81, 1.65, 2.04, 7.66, repro,
2013-04-11,3.81, 1.11, -12.16, 1.65, 1.96, 7.68, repro,
2013-04-12,0.69, 1.14, -12.45, 1.76, 2.03, 8.21, repro,
2013-04-13,1.92, -0.54, 4.86, 1.58, 1.98, 7.34, repro,
2013-04-14,0.44, -1.04, -10.56, 1.70, 2.10, 7.95, repro,
2013-04-15,0.92, -5.32, -0.29, 1.72, 2.17, 8.05, repro,
2013-04-16,-0.01, -1.20, -5.72, 1.75, 2.15, 8.26, repro,
2013-04-17,2.32, 0.15, 2.21, 1.81, 2.18, 8.51, repro,
2013-04-18,2.79, 0.27, 6.50, 1.71, 2.04, 8.04, repro,
2013-04-19,3.66, 0.88, 2.00, 1.66, 2.02, 7.76, repro,
2013-04-20,0.24, -0.86, -12.53, 1.82, 2.24, 8.49, repro,
2013-04-21,3.27, -2.76, -5.23, 1.65, 2.11, 7.72, repro,
2013-04-22,-1.10, -0.43, -8.02, 1.77, 2.24, 8.29, repro,
2013-04-23,0.84, -0.32, -2.23, 1.83, 2.30, 8.54, repro,
2013-04-24,1.71, -0.95, -9.23, 1.77, 2.08, 8.12, repro,
2013-04-25,1.41, 1.15, -7.72, 1.63, 2.00, 7.60, repro,
2013-04-26,1.46, 1.25, 4.83, 1.73, 2.06, 8.01, repro,
2013-04-27,2.35, 1.30, 2.78, 1.80, 2.30, 8.45, repro,
2013-04-28,1.25, 1.04, -7.64, 1.67, 2.04, 7.91, repro,
2013-04-29,2.93, -1.12, -0.76, 1.61, 2.01, 7.65, repro,
2013-04-30,2.10, -1.57, 2.47, 1.59, 1.99, 7.46, repro,
2013-05-01,1.31, 1.43, -3.28, 1.75, 2.14, 8.15, repro,
2013-05-02,0.31, -1.65, -7.76, 1.70, 2.14, 7.98, repro,
2013-05-03,-2.62, 0.17, 5.81, 1.76, 2.13, 8.23, repro,
2013-05-04,1.47, 1.45, 3.57, 1.60, 1.99, 7.43, repro,
2013-05-05,2.81, -1.99, 3.99, 1.65, 2.03, 7.68, repro,
2013-05-06,0.38, -0.47, -6.62, 1.62, 2.00, 7.57, repro,
2013-05-07,1.90, 1.31, -10.01, 1.66, 2.06, 7.82, repro,
2013-05-08,0.25, 0.23, -4.05, 1.61, 2.00, 7.55, repro,
2013-05-09,-0.23, 0.57, -7.68, 1.59, 1.98, 7.34, repro,
2013-05-10,3.20, 2.62, -9.25, 1.85, 2.28, 8.73, repro,
2013-05-11,1.31, 0.40, 0.93, 1.58, 1.98, 7.28, repro,
2013-05-12,1.41, 1.32, -6.38, 1.58, 1.92, 7.25, repro,
2013-05-13,0.44, -1.93, -4.64, 1.58, 1.94, 7.32, repro,
2013-05-14,1.27, -1.84, -9.72, 1.58, 1.92, 7.29, repro,
2013-05-15,2.92, 2.48, -0.16, 1.67, 2.06, 7.73, repro,
2013-05-16,2.29, -0.17, -3.99, 1.71, 2.31, 8.06, repro,
2013-05-17,1.50, 2.08, -7.94, 1.67, 2.03, 7.72, repro,
2013-05-18,2.32, -0.93, -3.39, 1.59, 1.94, 7.36, repro,
2013-05-19,3.63, -2.15, -1.85, 1.64, 2.04, 7.72, repro,
2013-05-20,0.05, -0.47, 3.67, 1.65, 2.06, 7.54, repro,
2013-05-21,0.05, 2.48, -3.14, 1.69, 2.09, 7.72, repro,
2013-05-22,0.90, -0.02, -3.33, 1.63, 2.02, 7.34, repro,
2013-05-23,-0.54, -0.07, -5.20, 1.62, 2.00, 7.47, repro,
2013-05-24,-0.37, 0.07, -9.30, 1.62, 2.03, 7.40, repro,
2013-05-25,0.25, 0.89, -3.59, 1.60, 1.99, 7.41, repro,
2013-05-26,2.72, 1.08, -5.56, 1.61, 2.00, 7.47, repro,
2013-05-27,2.87, -3.95, -8.13, 1.89, 2.65, 8.93, repro,
2013-05-28,1.35, 0.57, -0.79, 1.63, 1.98, 7.50, repro,
2013-05-29,1.15, -0.63, -15.18, 2.04, 2.71, 9.59, repro,
2013-05-30,0.61, 0.90, -9.86, 1.59, 1.95, 7.31, repro,
2013-05-31,1.85, 0.64, -9.84, 1.71, 2.15, 7.79, repro,
2013-06-01,-1.29, -0.34, -13.75, 1.62, 1.95, 7.41, repro,
2013-06-02,-0.87, 2.70, -16.29, 1.64, 1.97, 7.45, repro,
2013-06-03,-0.19, 1.26, -4.88, 1.67, 2.05, 7.59, repro,
2013-06-04,-0.56, 1.11, -17.74, 1.66, 2.02, 7.60, repro,
2013-06-05,-3.00, 1.93, -16.74, 1.90, 2.52, 9.03, repro,
2013-06-06,0.03, -1.89, -6.86, 1.60, 1.97, 7.35, repro,
2013-06-07,1.84, 1.28, -16.36, 1.83, 2.20, 8.39, repro,
2013-06-08,-0.56, 2.86, -13.09, 1.60, 1.92, 7.30, repro,
2013-06-09,1.05, 0.24, -8.92, 1.61, 1.98, 7.43, repro,
2013-06-10,-0.85, 1.51, -10.18, 1.89, 2.43, 8.81, repro,
2013-06-11,-1.68, -0.89, -9.29, 1.65, 2.01, 7.44, repro,
2013-06-12,-0.62, 0.05, -14.19, 1.65, 1.97, 7.49, repro,
2013-06-13,-0.75, 1.86, -13.72, 1.64, 1.94, 7.42, repro,
2013-06-14,-0.53, 0.84, -14.66, 1.64, 1.95, 7.46, repro,
2013-06-15,-0.74, 1.66, -9.68, 1.90, 2.43, 9.01, repro,
2013-06-16,-0.01, -0.00, -19.33, 1.63, 1.95, 7.46, repro,
2013-06-17,-0.97, -2.69, -18.11, 1.62, 1.99, 7.46, repro,
2013-06-18,0.29, 1.71, -12.34, 1.65, 1.95, 7.51, repro,
2013-06-19,-0.50, 0.43, -15.73, 1.64, 1.96, 7.52, repro,
2013-06-20,-0.48, 0.64, -14.78, 1.64, 1.96, 7.52, repro,
2013-06-21,-1.62, 0.09, -7.33, 1.64, 1.96, 7.53, repro,
2013-06-22,0.43, -0.31, -13.94, 1.62, 1.93, 7.47, repro,